DateTimeUTC,F1_A11,F1_S11,BsB_S11,BsG_S11,BsR_S11,BbsB_S11,BbsG_S11,BbsR_S11,BaB_A11,BaG_A11,BaR_A11,Tu_S11,T_S11,Uu_S11,U_S11,P_S11,T1_A11
2021-01-09T15:00:00Z,00000200,21000000,,,,,,,-000.41,-000.20,-000.04,15.4,22.5,,00.0,0640.3,30.8
2021-01-09T15:01:00Z,00000200,21000000,,,,,,,-000.00,-000.03,-000.24,15.4,22.5,,00.0,0640.3,30.8
2021-01-09T15:02:00Z,00000200,21000000,,,,,,,-000.23,-000.11,0000.00,15.4,22.5,,00.0,0640.3,30.8
2021-01-09T15:03:00Z,00000200,61000000,,,,,,,0000.17,0000.02,0000.08,15.4,22.5,,00.0,0640.3,30.7
2021-01-09T15:04:00Z,00000200,41000000,0000.74,0000.34,0000.19,0000.21,-000.00,0000.05,0000.12,-000.06,-000.07,15.4,22.2,,00.0,0641.1,30.7
2021-01-09T15:05:00Z,00000200,01000000,0000.41,-000.06,0000.08,0000.35,-000.08,-000.14,-000.04,0000.01,-000.11,15.4,22.1,,00.0,0641.1,30.7
2021-01-09T15:06:00Z,00000200,01000000,0001.07,0000.10,0000.05,0000.53,0000.04,0000.17,0000.15,0000.28,0000.19,15.4,22.1,,00.0,0641.2,30.7
2021-01-09T15:07:00Z,00000200,01000000,0000.48,0000.06,0000.25,0000.29,0000.04,0000.31,0000.20,0000.19,0000.18,15.4,22.1,,00.0,0641.2,30.7
2021-01-09T15:08:00Z,00000200,01000000,0000.77,0000.22,0000.36,-000.12,-000.01,0000.12,0000.15,-000.19,-000.33,15.4,22.1,,00.0,0641.2,30.7
2021-01-09T15:09:00Z,00000200,01000000,0000.40,0000.05,-000.04,-000.06,-000.12,-000.13,-000.02,0000.01,0000.18,15.5,22.1,,00.0,0641.2,30.7
2021-01-09T15:10:00Z,00000200,01000000,0000.34,0000.19,0000.20,-000.30,0000.38,0000.21,-000.22,0000.07,0000.22,15.6,22.1,,00.0,0641.2,30.7
2021-01-09T15:11:00Z,00000200,01000000,0000.31,0000.19,0000.27,-000.02,0000.03,0000.02,0000.08,0000.25,0000.06,15.6,22.2,,00.0,0641.2,30.8
2021-01-09T15:12:00Z,00000200,01000000,0000.87,0000.24,-000.16,0000.07,-000.00,0000.01,-000.01,0000.06,-000.17,15.7,22.2,,00.0,0641.2,30.8
2021-01-09T15:13:00Z,00000200,01000000,0000.24,0000.05,0000.05,-000.33,0000.25,0000.04,0000.18,0000.06,0000.28,15.7,22.2,,00.0,0641.3,30.8
2021-01-09T15:14:00Z,00000200,01000000,0000.22,0000.17,0000.09,-000.20,0000.16,0000.28,-000.04,-000.21,-000.50,15.8,22.2,,00.0,0641.3,30.8
2021-01-09T15:15:00Z,00000200,01000000,0000.37,0000.10,0000.05,0000.03,-000.17,0000.12,-000.44,0000.07,0000.34,15.8,22.3,,00.0,0641.3,30.8
2021-01-09T15:16:00Z,00000200,01000000,0000.86,0000.20,-000.11,0000.10,0000.16,-000.16,-000.10,-000.40,-000.44,15.8,22.2,,00.0,0641.3,30.8
2021-01-09T15:17:00Z,00000200,01000000,0000.80,0000.08,-000.11,0000.34,0000.36,0000.14,0000.11,0000.15,0000.11,15.7,22.2,,00.0,0641.2,30.7
2021-01-09T15:18:00Z,00000200,01000000,-000.53,0000.00,0000.43,0000.05,0000.32,-000.04,-000.16,-000.21,-000.44,15.6,22.2,,00.0,0641.2,30.7
2021-01-09T15:19:00Z,00000200,01000000,0000.35,0000.22,-000.04,0000.32,-000.11,-000.02,-000.07,-000.36,0000.33,15.5,22.1,,00.0,0641.2,30.7
2021-01-09T15:20:00Z,00000200,01000000,0000.29,-000.14,0000.12,0000.27,0000.06,0000.03,-000.10,0000.30,0000.00,15.5,22.1,,00.0,0641.2,30.7
2021-01-09T15:21:00Z,00000200,01000000,0000.54,0000.02,0000.16,-000.31,0000.32,-000.02,0000.23,-000.46,0000.28,15.5,22.1,,00.0,0641.1,30.7
2021-01-09T15:22:00Z,00000200,01000000,0000.18,0000.26,-000.06,-000.24,-000.01,0000.19,0000.08,0000.72,-000.20,15.5,22.1,,00.0,0641.2,30.7
2021-01-09T15:23:00Z,00000200,01000000,0000.94,0000.52,0000.27,0000.59,-000.03,-000.06,0000.31,0000.02,-000.03,15.5,22.1,,00.0,0641.2,30.7
2021-01-09T15:24:00Z,00000200,01000000,0000.09,0000.04,0000.19,0000.83,0000.36,0000.12,-000.16,-000.19,0000.11,15.6,22.1,,00.0,0641.2,30.7
2021-01-09T15:25:00Z,00000200,01000000,0000.22,0000.19,-000.02,-000.03,0000.13,0000.19,0000.18,0000.11,0000.26,15.6,22.1,,00.0,0641.2,30.8
2021-01-09T15:26:00Z,00000200,01000000,0000.40,-000.02,-000.00,0000.27,0000.15,0000.15,0000.17,0000.20,-000.03,15.7,22.1,,00.0,0641.2,30.8
2021-01-09T15:27:00Z,00000200,01000000,0000.32,0000.12,0000.11,0000.40,-000.07,-000.01,0000.04,0000.10,-000.01,15.7,22.2,,00.0,0641.2,30.8
2021-01-09T15:28:00Z,00000200,01000000,0001.09,-000.00,0000.13,0000.01,-000.20,0000.09,-000.07,0000.12,0000.41,15.8,22.2,,00.0,0641.2,30.8
2021-01-09T15:29:00Z,00000200,01000000,0000.86,0000.02,0000.25,-000.05,0000.01,0000.14,0000.13,0000.01,0000.11,15.8,22.2,,00.0,0641.2,30.8
2021-01-09T15:30:00Z,00000200,01000000,0000.96,0000.03,0000.02,0000.16,0000.13,0000.10,0000.00,0000.16,-000.36,15.8,22.2,,00.0,0641.1,30.8
2021-01-09T15:31:00Z,00000200,01000000,0000.07,0000.08,-000.07,0000.11,0000.05,0000.01,0000.50,0000.01,0000.22,15.8,22.2,,00.0,0641.0,30.8
2021-01-09T15:32:00Z,00000200,01000000,0000.76,0000.16,0000.07,0000.47,0000.09,0000.07,-000.14,-000.02,-000.22,15.7,22.2,,00.0,0641.0,30.7
2021-01-09T15:33:00Z,00000200,01000000,0000.36,0000.41,0000.21,0000.40,-000.11,0000.02,0000.00,0000.07,0000.43,15.6,22.2,,00.0,0641.0,30.7
2021-01-09T15:34:00Z,00000200,01000000,0000.84,0000.08,0000.09,0000.03,0000.01,0000.06,0000.25,0000.09,0000.10,15.5,22.1,,00.0,0640.9,30.7
2021-01-09T15:35:00Z,00000200,01000000,0000.33,0000.23,0000.04,0001.12,0000.23,-000.06,0000.26,0000.03,0000.10,15.5,22.1,,00.0,0640.9,30.7
2021-01-09T15:36:00Z,00000200,01000000,0000.36,0000.36,0000.23,0000.14,-000.19,0000.01,0000.19,0000.24,0000.02,15.4,22.0,,00.0,0640.9,30.7
2021-01-09T15:37:00Z,00000200,01000000,0000.37,0000.01,0000.03,-000.33,-000.03,-000.09,0000.07,0000.34,0000.16,15.5,22.1,,00.0,0640.8,30.7
2021-01-09T15:38:00Z,00000200,01000000,0000.98,0000.15,-000.16,0000.11,0000.13,-000.27,0000.17,0000.13,0000.14,15.5,22.1,,00.0,0640.8,30.7
2021-01-09T15:39:00Z,00000200,01000000,0000.17,0000.25,0000.18,-000.35,-000.21,0000.15,0000.20,0000.09,0000.14,15.6,22.1,,00.0,0640.7,30.7
2021-01-09T15:40:00Z,00000200,01000000,0000.28,0000.17,0000.21,0000.22,0000.09,0000.12,0000.24,0000.16,0000.03,15.6,22.1,,00.0,0640.7,30.8
2021-01-09T15:41:00Z,00000200,01000000,0000.37,0000.05,0000.14,-000.04,0000.18,0000.02,-000.05,0000.61,0000.27,15.7,22.2,,00.0,0640.7,30.8
2021-01-09T15:42:00Z,00000200,01000000,0000.90,-000.19,0000.14,0000.08,0000.18,0000.05,0000.40,-000.16,0000.11,15.7,22.2,,00.0,0640.7,30.8
2021-01-09T15:43:00Z,00000200,01000000,0000.44,0000.29,0000.11,-000.39,-000.11,0000.09,-000.01,-000.12,-000.39,15.8,22.2,,00.0,0640.7,30.8
2021-01-09T15:44:00Z,00000200,01000000,-000.11,0000.20,0000.28,-000.60,0000.15,-000.02,-000.46,0000.13,0000.06,15.8,22.2,,00.0,0640.6,30.8
2021-01-09T15:45:00Z,00000200,01000000,0000.58,0000.06,0000.02,0000.41,0000.10,-000.05,0000.62,0000.13,0000.28,15.8,22.2,,00.0,0640.6,30.8
2021-01-09T15:46:00Z,00000200,01000000,0000.56,0000.04,0000.08,0000.41,0000.16,0000.08,0000.07,0000.03,0000.06,15.8,22.2,,00.0,0640.6,30.8
2021-01-09T15:47:00Z,00000200,01000000,0000.51,0000.02,0000.29,0000.26,0000.11,0000.14,-000.18,-000.16,-000.22,15.7,22.2,,00.0,0640.6,30.7
2021-01-09T15:48:00Z,00000200,01000000,-000.08,0000.19,0000.10,-000.06,0000.09,0000.15,-000.49,-000.12,-000.05,15.6,22.2,,00.0,0640.6,30.7
2021-01-09T15:49:00Z,00000200,01000000,0000.33,-000.22,0000.16,-000.14,0000.26,0000.19,0000.42,0000.04,-000.09,15.5,22.1,,00.0,0640.6,30.7
2021-01-09T15:50:00Z,00000200,01000000,0000.30,0000.29,0000.07,0000.14,0000.25,-000.07,0000.10,-000.28,0000.29,15.5,22.1,,00.0,0640.6,30.7
2021-01-09T15:51:00Z,00000200,01000000,0000.55,0000.45,0000.05,-000.38,0000.29,-000.03,0000.11,0000.80,-000.06,15.5,22.0,,00.0,0640.6,30.7
2021-01-09T15:52:00Z,00000200,01000000,0000.39,0000.14,0000.23,0000.74,0000.09,-000.03,-000.08,-000.07,0000.19,15.5,22.0,,00.0,0640.6,30.7
2021-01-09T15:53:00Z,00000200,01000000,0000.34,0000.24,0000.38,-000.23,-000.02,-000.06,0000.34,0000.18,0000.45,15.5,22.1,,00.0,0640.7,30.7
2021-01-09T15:54:00Z,00000200,01000000,0000.55,0000.30,0000.16,-000.20,0000.20,0000.19,0000.13,0000.39,0000.02,15.6,22.1,,00.0,0640.7,30.7
2021-01-09T15:55:00Z,00000200,01000000,0000.69,0000.21,0000.33,0000.32,0000.06,-000.02,0000.02,-000.16,0000.12,15.6,22.1,,00.0,0640.7,30.8
2021-01-09T15:56:00Z,00000200,01000000,0000.48,0000.17,0000.16,-000.22,0000.19,0000.04,0000.10,-000.10,0000.05,15.7,22.1,,00.0,0640.7,30.8
2021-01-09T15:57:00Z,00000200,41000000,,,,,,,-000.07,0000.31,-000.12,15.8,22.2,,00.0,0640.8,30.8
2021-01-09T15:58:00Z,00000200,61000000,,,,,,,0000.03,-000.40,-000.05,15.4,22.4,,00.0,0639.9,30.8
2021-01-09T15:59:00Z,00000200,21000000,,,,,,,-000.11,0000.15,-000.26,15.4,22.5,,00.0,0639.9,30.8
